CZ-3C DEB, 40207

Orbit data source: Space-Track

CZ-3C DEB, 40207 is space debris in HEO originally from a launch on Fri, 24 Feb 2012 UTC launched from the Xichang Space Center, China (XSC). Debris objects in space refer to the collection of defunct objects orbiting the Earth. Examples of debris include non-operational satellites, rocket bodies, and fragments generated from explosions, collisions, or faulty payload assembly.

Loading next visibility...
Identifier
40207, 2012-008S
Orbit
HEO
Country
Flag of CNCN / PRC
Related business
Manufacturer
CALT
Mission
Spacecraft
Bus & Motor
Unknown
Mass
Unknown
Launch date (UTC)
2012-02-24 (14 years ago)
Launch vehicle
Unknown
Launch site
Xichang Space Center, China (XSC)
Object type
Payload
Rocket body
Debris
Shape & HBR
Unknown
Radar Cross Section
Medium (>0.1 m² and <1 m²)

Expand to show TLE details & history
Last TLE update: 1 day ago

TLE from 1 day ago
0 CZ-3C DEB
1 40207U 12008S   25260.40849369  .00000885  00000-0  56078-2 0  9991
2 40207  19.4588  48.6975 7218992 200.8872  99.5928  2.23705446 89309
Epoch: 2025-09-17T09:48Z
TLE epoch observation values (Epoch: 2025-09-17T09:48:13.854Z)
Latitude
0.00001°
Longitude
-94.96416°
Altitude
29,964.153 km
Speed
2.407 km/s
True Right ascension
03h 14m 42s
True Declination
0° 00' 00"
Sunlit
Object was in daylight at epoch
Visualization orbit readout
Latitude
Unknown
Longitude
Unknown
Altitude
Unknown
Speed
Unknown
Apparent Right ascension
Unknown
Apparent Declination
Unknown
Sunlit
N/A
Visualization observer readout
Local Sidereal Time
05:34:56
Azimuth
Unknown
Elevation
Unknown
Doppler factor
Unknown
Orbital elements
Apogee altitude
36,152.742 km
Perigee altitude
490.948 km
Semi-major axis
24,699.982 km
Eccentricity
0.7219
Inclination
19.4588°
RAAN
48.6975°
Arg. of periapsis
200.8872°
True anomaly
159.18193°
Mean anomaly
99.5928°
Eccentric anomaly
130.87028°
Mean motion
0.55911 °/min
Orbital period
643.88 mins
BSTAR
0.0056078
Loading maneuver chart data...
Computing Atmospheric mass density...
Loading historical data...
Loading historical data...
Loading historical data...
Loading historical data...
Loading historical data...
Loading historical data...
Loading historical data...

Documentation

Showing up to 5 results
|